Weather History for Gwinn, MI

Change the Weather History Date:

Sunday, November 17, 2013

  Actual Average (KESC) Record (KESC)
Temperature  
Mean Temperature 44 °F -  
Max Temperature 51 °F 41 °F 57 °F (1958)
Min Temperature 36 °F 29 °F -1 °F (1959)
Degree Days  
Heating Degree Days 21    
Moisture  
Dew Point 46 °F    
Average Humidity 91    
Maximum Humidity 100    
Minimum Humidity 76    
Precipitation  
Precipitation 0.01 in - - ()
Sea Level Pressure  
Sea Level Pressure 29.29 in    
Wind  
Wind Speed 14 mph (SW)    
Max Wind Speed 28 mph    
Max Gust Speed 41 mph    
Visibility 6 miles    
Events Rain    
Averages and records for this station are not official NWS values.
T = Trace of Precipitation, MM = Missing Value Source: NWS Daily Summary

Daily Weather History Graph

Daily Weather History Graph

Search for Another Location

Airport:

Trip Planner

Search our weather history database for the weather conditions in past years. The results will help you decide how hot, cold, wet, or windy it might be!

Date:

Astronomy

Nov. 17, 2013 Rise Set
Actual Time 7:54 AM EST 5:14 PM EST
Civil Twilight 7:21 AM EST 5:47 PM EST
Nautical Twilight 6:44 AM EST 6:24 PM EST
Astronomical Twilight 6:09 AM EST 6:59 PM EST
Moon 5:31 PM EST (11/17) 7:47 AM EST (11/17)
Length of Visible Light 10h 26m
Length of Day
9h 20m
Full, 100% of the Moon is Illuminated
Nov 17
Full
Nov 25
Last Quarter
Dec 2
New
Dec 9
First Quarter
Dec 17
Full

Hourly Weather History & Observations

Time (EST) Temp. Windchill Dew Point Humidity Pressure Visibility Wind Dir Wind Speed Gust Speed Precip Events Conditions
12:16 AM 49.1 °F - 47.8 °F 95% 29.37 in 5.0 mi South 16.1 mph - 0.01 in Rain Rain
12:37 AM 49.5 °F - 48.2 °F 95% 29.37 in 7.0 mi South 16.1 mph - 0.01 in   Overcast
12:56 AM 50.2 °F - 49.1 °F 96% 29.37 in 7.0 mi South 15.0 mph 20.7 mph 0.01 in   Overcast
1:16 AM 50.5 °F - 49.3 °F 95% 29.37 in 7.0 mi SSW 17.3 mph - N/A   Overcast
1:37 AM 50.9 °F - 49.5 °F 95% 29.36 in 7.0 mi SSW 13.8 mph 21.9 mph N/A   Overcast
1:56 AM 50.9 °F - 49.5 °F 95% 29.36 in 5.0 mi South 15.0 mph 19.6 mph N/A   Overcast
2:17 AM 51.3 °F - 50.0 °F 95% 29.36 in 5.0 mi SSW 12.7 mph - N/A   Overcast
2:36 AM 51.4 °F - 50.0 °F 95% 29.35 in 5.0 mi South 12.7 mph - N/A   Overcast
2:56 AM 51.4 °F - 50.0 °F 95% 29.36 in 5.0 mi SSW 11.5 mph - N/A   Overcast
3:17 AM 51.8 °F - 50.2 °F 94% 29.36 in 5.0 mi South 13.8 mph - N/A   Overcast
3:36 AM 51.6 °F - 50.0 °F 94% 29.35 in 5.0 mi South 13.8 mph - N/A   Overcast
3:56 AM 51.4 °F - 50.0 °F 95% 29.35 in 5.0 mi SSW 12.7 mph 18.4 mph N/A   Overcast
4:17 AM 51.4 °F - 50.0 °F 95% 29.35 in 5.0 mi SSW 11.5 mph - N/A   Overcast
4:36 AM 51.1 °F - 49.6 °F 95% 29.36 in 4.0 mi SSW 11.5 mph - N/A   Overcast
4:57 AM 50.5 °F - 49.1 °F 95% 29.35 in 5.0 mi SSW 9.2 mph - N/A   Mostly Cloudy
5:16 AM 49.8 °F - 48.6 °F 95% 29.35 in 4.0 mi SSW 10.4 mph - N/A   Scattered Clouds
5:37 AM 49.5 °F - 48.2 °F 95% 29.35 in 5.0 mi South 11.5 mph - N/A   Clear
5:57 AM 49.1 °F - 47.8 °F 95% 29.35 in 4.0 mi SSW 10.4 mph - N/A   Clear
6:50 AM 48.2 °F - 48.2 °F 100% 29.35 in 4.0 mi South 12.7 mph - N/A   Scattered Clouds
7:45 AM 50.0 °F - 48.2 °F 94% 29.34 in 4.0 mi South 10.4 mph - N/A   Overcast
7:59 AM 50.0 °F - 48.2 °F 94% 29.34 in 3.0 mi South 10.4 mph - N/A   Overcast
8:50 AM 50.0 °F - 50.0 °F 100% 29.34 in 2.5 mi SSW 10.4 mph - N/A   Overcast
9:50 AM 51.8 °F - 50.0 °F 94% 29.32 in 2.5 mi South 8.1 mph - N/A   Overcast
10:50 AM 51.8 °F - 50.0 °F 94% 29.32 in 3.0 mi South 12.7 mph - N/A   Overcast
11:50 AM 51.8 °F - 50.0 °F 94% 29.27 in 2.5 mi South 9.2 mph 16.1 mph N/A   Overcast
12:50 PM 51.8 °F - 50.0 °F 94% 29.23 in 2.5 mi SSW 6.9 mph - N/A   Overcast
1:50 PM 51.8 °F - 50.0 °F 94% 29.21 in 4.0 mi SW 4.6 mph - N/A   Overcast
2:50 PM 51.8 °F - 50.0 °F 94% 29.15 in 7.0 mi Calm Calm - N/A   Overcast
3:50 PM 51.8 °F - 46.4 °F 82% 29.15 in 10.0 mi NW 5.8 mph - N/A   Overcast
4:50 PM 50.0 °F - 44.6 °F 82% 29.13 in 10.0 mi NW 6.9 mph - N/A   Mostly Cloudy
5:55 PM 48.2 °F - 41.0 °F 76% 29.16 in 10.0 mi NW 13.8 mph - N/A   Overcast
7:55 PM 42.8 °F 34.0 °F 39.2 °F 87% 29.18 in 10.0 mi NW 20.7 mph 28.8 mph N/A   Overcast
8:50 PM 41.0 °F 32.5 °F 37.4 °F 87% 29.18 in 10.0 mi WNW 17.3 mph 25.3 mph N/A   Light Drizzle
9:50 PM 39.2 °F 27.8 °F 35.6 °F 87% 29.19 in 10.0 mi WNW 27.6 mph 35.7 mph N/A   Overcast
10:17 PM 38.5 °F 27.5 °F 34.3 °F 85% 29.20 in 10.0 mi WNW 24.2 mph 40.3 mph N/A   Overcast
10:36 PM 38.1 °F 27.1 °F 34.0 °F 85% 29.21 in 10.0 mi WNW 24.2 mph 39.1 mph N/A   Overcast
10:56 PM 37.8 °F 28.0 °F 33.4 °F 84% 29.22 in 10.0 mi WNW 18.4 mph 29.9 mph N/A   Overcast
11:17 PM 37.8 °F 26.6 °F 32.2 °F 80% 29.23 in 10.0 mi WNW 24.2 mph 32.2 mph N/A   Overcast
11:36 PM 37.4 °F 25.9 °F 32.0 °F 81% 29.24 in 10.0 mi WNW 25.3 mph 41.4 mph N/A   Overcast
11:56 PM 36.9 °F 25.9 °F 31.5 °F 81% 29.26 in 10.0 mi WNW 21.9 mph 38.0 mph N/A   Overcast